Location: Fxbg
(38.3018°N, 77.4708°W)
Time: 10:58:32
(UTC-05:00)

ISS - Visible Passes

Search period start: 22 January 2018 00:00
Search period end: 01 February 2018 00:00
Orbit: 402 x 407 km, 51.6° (Epoch: 23 January)

Date Brightness Start Highest point End Pass type
(mag) Time Alt. Az. Time Alt. Az. Time Alt. Az.
22 Jan -1.2 19:20:08 10° SSW 19:20:48 14° SSW 19:20:48 14° SSW visible
23 Jan -1.9 18:28:54 10° S 18:30:57 16° SE 18:31:12 16° SE visible
24 Jan -3.3 19:11:35 10° SW 19:14:11 54° SW 19:14:11 54° SW visible
25 Jan -3.2 18:19:32 10° SSW 18:22:36 40° SE 18:24:24 20° ENE visible
25 Jan -0.5 19:56:30 10° W 19:57:05 13° WNW 19:57:05 13° WNW visible
26 Jan -2.8 19:03:39 10° WSW 19:06:43 38° NNW 19:07:12 35° N visible
27 Jan -3.7 18:11:05 10° SW 18:14:20 73° NW 18:17:14 13° NE visible
27 Jan -0.7 19:49:26 10° NW 19:49:54 12° NW 19:49:54 12° NW visible
28 Jan -1.7 18:56:12 10° WNW 18:58:42 20° NNW 18:59:51 17° N visible
29 Jan -2.4 18:03:13 10° W 18:06:11 31° NNW 18:09:08 10° NNE visible
30 Jan -1.2 18:49:12 10° NW 18:50:46 13° NNW 18:52:14 10° N visible
31 Jan -1.6 17:55:49 10° WNW 17:58:07 18° NNW 18:00:26 10° NNE visible
